Location: Rounton
(54.4000°N, 1.3500°W)
Time: 21:43:33
(UTC+00:00)

Explorer 7 - Pass Details

Date: 05 December 2021
Orbit: 483 x 674 km, 50.3° (Epoch: 17 January)

Event Time Altitude Azimuth Distance (km) Brightness Sun altitude
Exits shadow 06:54:53 - 242° (WSW) 2,818 10.1 -10.0°
Rises 06:54:57 0° 242° (WSW) 2,794 10.1 -10.0°
Reaches altitude 10° 06:57:22 10° 235° (SW) 1,861 9.2 -9.6°
Maximum altitude 07:01:19 39° 166° (SSE) 822 8.1 -9.1°
Drops below altitude 10° 07:05:03 10° 97° (E) 1,760 10.7 -8.6°
Sets 07:07:17 0° 89° (E) 2,621 11.5 -8.4°
